When you browse on this site, cookies collect data to enhance your experience and personalize the content and advertising you see.
Visit our Privacy Policy to learn more. By continuing to use the site, you agree to this use of cookies and data.
  • In Denmark
  • List of Countries
  • For 7 days
  • Water Temperature
  • Satellite Maps
  • Weather Map
  • Weather Widgets
  • user-avatar
    Login

    Hourly Weather Strikino

    Today, 20 July, Saturday

    Time Temperature Precipitation Wind Pressure Humidity
    00:00 +13°C° 0 mm 4 mps 745 mmHg 92%
    01:00 +12°C° 0 mm 4 mps 745 mmHg 93%
    02:00 +12°C° 0 mm 3 mps 745 mmHg 94%
    03:00 +13°C° 0 mm 4 mps 745 mmHg 90%
    04:00 +13°C° 0 mm 4 mps 746 mmHg 87%
    05:00 +14°C° 0 mm 4 mps 746 mmHg 83%
    06:00 +15°C° 0 mm 5 mps 746 mmHg 80%
    07:00 +17°C° 0 mm 5 mps 746 mmHg 77%
    08:00 +19°C° 0 mm 5 mps 746 mmHg 75%
    09:00 +20°C° 0 mm 6 mps 746 mmHg 70%
    10:00 +22°C° 0 mm 6 mps 746 mmHg 66%
    11:00 +23°C° 0 mm 6 mps 747 mmHg 62%
    12:00 +23°C° 0.1 mm 6 mps 747 mmHg 61%
    13:00 +23°C° 0.1 mm 6 mps 747 mmHg 59%
    14:00 +24°C° 0.1 mm 6 mps 747 mmHg 58%
    15:00 +25°C° 0 mm 5 mps 747 mmHg 62%
    16:00 +23°C° 0 mm 4 mps 747 mmHg 65%
    17:00 +24°C° 0 mm 3 mps 747 mmHg 69%
    18:00 +21°C° 0 mm 3 mps 747 mmHg 70%
    19:00 +19°C° 0 mm 3 mps 747 mmHg 72%
    20:00 +17°C° 0 mm 3 mps 747 mmHg 73%
    21:00 +16°C° 0 mm 3 mps 748 mmHg 76%
    22:00 +14°C° 0 mm 3 mps 748 mmHg 79%
    23:00 +13°C° 0 mm 3 mps 748 mmHg 82%

    Tomorrow, 21 July, Sunday

    Time Temperature Precipitation Wind Pressure Humidity
    00:00 +13°C° 0 mm 3 mps 748 mmHg 84%
    01:00 +13°C° 0 mm 3 mps 748 mmHg 86%
    02:00 +12°C° 0 mm 3 mps 748 mmHg 88%
    03:00 +13°C° 0 mm 3 mps 748 mmHg 89%
    04:00 +13°C° 0 mm 3 mps 748 mmHg 90%
    05:00 +13°C° 0 mm 3 mps 748 mmHg 90%
    06:00 +16°C° 0 mm 3 mps 748 mmHg 85%
    07:00 +18°C° 0 mm 3 mps 748 mmHg 80%
    08:00 +20°C° 0 mm 3 mps 749 mmHg 75%
    09:00 +21°C° 0 mm 3 mps 749 mmHg 69%
    10:00 +22°C° 0 mm 4 mps 748 mmHg 63%
    11:00 +25°C° 0 mm 4 mps 748 mmHg 58%
    12:00 +25°C° 0 mm 3 mps 748 mmHg 56%
    13:00 +25°C° 0 mm 3 mps 748 mmHg 55%
    14:00 +26°C° 0 mm 3 mps 748 mmHg 54%
    15:00 +26°C° 0 mm 3 mps 748 mmHg 58%
    16:00 +25°C° 0 mm 3 mps 748 mmHg 63%
    17:00 +25°C° 0 mm 2 mps 748 mmHg 68%
    18:00 +23°C° 0.1 mm 2 mps 748 mmHg 74%
    19:00 +20°C° 0.1 mm 2 mps 748 mmHg 80%
    20:00 +18°C° 0.1 mm 2 mps 748 mmHg 86%
    21:00 +17°C° 0 mm 2 mps 748 mmHg 88%
    22:00 +17°C° 0 mm 2 mps 748 mmHg 89%
    23:00 +16°C° 0 mm 2 mps 748 mmHg 90%

    Day after tomorrow, 22 July, Monday

    Time Temperature Precipitation Wind Pressure Humidity
    00:00 +16°C° 0 mm 2 mps 748 mmHg 91%
    01:00 +15°C° 0 mm 2 mps 748 mmHg 92%
    02:00 +15°C° 0 mm 2 mps 748 mmHg 93%
    03:00 +15°C° 0 mm 2 mps 748 mmHg 93%
    04:00 +15°C° 0 mm 1 mps 748 mmHg 93%
    05:00 +16°C° 0 mm 1 mps 748 mmHg 93%
    06:00 +18°C° 0 mm 1 mps 748 mmHg 88%
    07:00 +19°C° 0 mm 2 mps 748 mmHg 83%
    08:00 +21°C° 0 mm 2 mps 748 mmHg 78%
    09:00 +23°C° 0 mm 1 mps 748 mmHg 73%
    10:00 +24°C° 0 mm 1 mps 748 mmHg 67%
    11:00 +25°C° 0 mm 1 mps 747 mmHg 61%
    12:00 +26°C° 0 mm 1 mps 747 mmHg 58%
    13:00 +26°C° 0 mm 1 mps 747 mmHg 55%
    14:00 +27°C° 0 mm 1 mps 747 mmHg 52%
    15:00 +27°C° 0 mm 1 mps 747 mmHg 55%
    16:00 +27°C° 0 mm 1 mps 746 mmHg 58%
    17:00 +26°C° 0 mm 1 mps 746 mmHg 60%
    18:00 +24°C° 0 mm 1 mps 746 mmHg 65%
    19:00 +23°C° 0 mm 1 mps 746 mmHg 69%
    20:00 +21°C° 0 mm 1 mps 746 mmHg 73%
    21:00 +20°C° 0 mm 1 mps 746 mmHg 74%
    22:00 +20°C° 0 mm 1 mps 746 mmHg 74%
    23:00 +19°C° 0 mm 1 mps 746 mmHg 75%

    23 July, Tuesday

    Time Temperature Precipitation Wind Pressure Humidity
    00:00 +19°C° 0 mm 1 mps 746 mmHg 75%
    01:00 +18°C° 0 mm 2 mps 746 mmHg 75%
    02:00 +18°C° 0 mm 2 mps 745 mmHg 75%
    03:00 +18°C° 0.1 mm 2 mps 745 mmHg 77%
    04:00 +18°C° 0.1 mm 2 mps 745 mmHg 79%
    05:00 +18°C° 0.1 mm 2 mps 745 mmHg 81%
    06:00 +19°C° 0 mm 2 mps 745 mmHg 80%
    07:00 +20°C° 0 mm 2 mps 745 mmHg 79%
    08:00 +21°C° 0 mm 3 mps 745 mmHg 78%
    09:00 +22°C° 0.1 mm 3 mps 745 mmHg 76%
    10:00 +24°C° 0.1 mm 3 mps 745 mmHg 73%
    11:00 +25°C° 0.1 mm 4 mps 745 mmHg 71%
    12:00 +25°C° 0.6 mm 4 mps 745 mmHg 72%
    13:00 +25°C° 0.6 mm 4 mps 744 mmHg 72%
    14:00 +25°C° 0.6 mm 4 mps 744 mmHg 73%
    15:00 +24°C° 1.5 mm 3 mps 744 mmHg 79%
    16:00 +23°C° 1.5 mm 2 mps 744 mmHg 85%
    17:00 +21°C° 1.5 mm 2 mps 744 mmHg 91%
    18:00 +20°C° 0.3 mm 2 mps 744 mmHg 93%
    19:00 +19°C° 0.3 mm 2 mps 744 mmHg 94%
    20:00 +19°C° 0.3 mm 2 mps 744 mmHg 95%
    21:00 +19°C° 0.1 mm 2 mps 744 mmHg 95%
    22:00 +19°C° 0.1 mm 3 mps 745 mmHg 95%
    23:00 +19°C° 0.1 mm 3 mps 745 mmHg 95%

    24 July, Wednesday

    Time Temperature Precipitation Wind Pressure Humidity
    00:00 +18°C° 0.4 mm 3 mps 745 mmHg 96%
    01:00 +18°C° 0.4 mm 3 mps 745 mmHg 96%
    02:00 +18°C° 0.4 mm 3 mps 745 mmHg 97%
    03:00 +18°C° 0.1 mm 3 mps 745 mmHg 97%
    04:00 +18°C° 0.1 mm 3 mps 745 mmHg 97%
    05:00 +18°C° 0.1 mm 3 mps 745 mmHg 97%
    06:00 +19°C° 0 mm 3 mps 745 mmHg 93%
    07:00 +20°C° 0 mm 3 mps 745 mmHg 89%
    08:00 +21°C° 0 mm 2 mps 746 mmHg 85%
    09:00 +23°C° 0.2 mm 2 mps 746 mmHg 81%
    10:00 +24°C° 0.2 mm 2 mps 746 mmHg 77%
    11:00 +25°C° 0.2 mm 2 mps 746 mmHg 74%
    12:00 +25°C° 0.9 mm 2 mps 746 mmHg 73%
    13:00 +26°C° 0.9 mm 2 mps 746 mmHg 72%
    14:00 +26°C° 0.9 mm 2 mps 746 mmHg 72%
    15:00 +26°C° 0.5 mm 2 mps 746 mmHg 72%
    16:00 +26°C° 0.5 mm 2 mps 746 mmHg 73%
    17:00 +26°C° 0.5 mm 1 mps 746 mmHg 74%
    18:00 +24°C° 0.2 mm 1 mps 746 mmHg 78%
    19:00 +23°C° 0.2 mm 1 mps 746 mmHg 82%
    20:00 +21°C° 0.2 mm 1 mps 746 mmHg 87%
    21:00 +21°C° 0 mm 1 mps 746 mmHg 88%
    22:00 +20°C° 0 mm 1 mps 746 mmHg 88%
    23:00 +18°C° 0 mm 0 mps 746 mmHg 89%

    25 July, Thursday

    Time Temperature Precipitation Wind Pressure Humidity
    00:00 +17°C° 0 mm 0 mps 747 mmHg 89%
    01:00 +17°C° 0 mm 0 mps 747 mmHg 90%
    02:00 +19°C° 0 mm 1 mps 747 mmHg 90%
    03:00 +19°C° 0 mm 1 mps 747 mmHg 90%
    04:00 +20°C° 0 mm 1 mps 747 mmHg 90%
    05:00 +18°C° 0 mm 0 mps 747 mmHg 90%
    06:00 +19°C° 0 mm 0 mps 747 mmHg 85%
    07:00 +21°C° 0 mm 0 mps 747 mmHg 81%
    08:00 +23°C° 0 mm 0 mps 747 mmHg 76%
    09:00 +26°C° 0.8 mm 1 mps 747 mmHg 72%
    10:00 +26°C° 0.8 mm 1 mps 747 mmHg 68%
    11:00 +27°C° 0.8 mm 1 mps 747 mmHg 64%
    12:00 +28°C° 0.2 mm 1 mps 747 mmHg 62%
    13:00 +29°C° 0.2 mm 1 mps 747 mmHg 59%
    14:00 +29°C° 0.2 mm 1 mps 747 mmHg 57%
    15:00 +29°C° 0 mm 1 mps 747 mmHg 59%
    16:00 +29°C° 0 mm 1 mps 747 mmHg 61%
    17:00 +29°C° 0 mm 1 mps 747 mmHg 63%
    18:00 +27°C° 0.3 mm 1 mps 747 mmHg 69%
    19:00 +25°C° 0.3 mm 1 mps 747 mmHg 74%
    20:00 +24°C° 0.3 mm 2 mps 747 mmHg 79%
    21:00 +23°C° 0.3 mm 1 mps 747 mmHg 83%
    22:00 +22°C° 0.3 mm 1 mps 747 mmHg 86%
    23:00 +19°C° 0.3 mm 0 mps 747 mmHg 89%
    Show more